Back to catalog

THOR ABLESTAR DEB

AliveUNKNOWN
NORAD 5876·DEBRIS·🇺🇸 United States

Launched Jun 29, 1961 from Cape Canaveral Space Force Station

Loading…

Next Passes (next 24 hours)

TLE

FreshSource: Space-Track

Epoch: Sep 13, 2026, 22:02 UTC

1 05876U 61015KF  26256.91863745 -.00000024  00000-0  90417-4 0  9995
2 05876  65.6718 125.2971 0727376 237.0992 115.8005 12.49194824176190

Track THOR ABLESTAR DEB in real time with AllMySat

Download on the App Store